AKST,Max TemperatureF,Mean TemperatureF,Min TemperatureF,Max Dew PointF,MeanDew PointF,Min DewpointF,Max Humidity, Mean Humidity, Min Humidity, Max Sea Level PressureIn, Mean Sea Level PressureIn, Min Sea Level PressureIn, Max VisibilityMiles, Mean VisibilityMiles, Min VisibilityMiles, Max Wind SpeedMPH, Mean Wind SpeedMPH, Max Gust SpeedMPH,PrecipitationIn, CloudCover, Events, WindDirDegrees
2013-1-1,47,32,16,20,18,9,0,0,0,29.44,29.21,29.08,10,10,10,18,4,25,0.00,5,,328
2013-1-2,36,25,14,21,14,7,0,0,0,29.41,29.32,29.14,10,7,0,7,1,8,0.01,6,Snow,233
2013-1-3,28,17,5,12,5,-3,0,0,0,29.57,29.46,29.38,10,10,10,7,1,8,0.00,4,,314
2013-1-4,12,2,-9,0,-5,-13,0,0,0,29.78,29.71,29.58,10,10,9,6,1,6,0.00,4,,315
2013-1-5,17,3,-12,14,2,-15,0,0,0,29.71,29.47,29.31,10,10,1,5,0,6,0.00,7,,-1
2013-1-6,18,8,-2,14,4,-5,0,0,0,29.38,29.30,29.16,10,10,8,6,0,7,T,5,Snow,-1
2013-1-7,5,-5,-15,1,-11,-19,0,0,0,29.65,29.35,29.16,10,10,9,6,1,7,0.00,4,,277
2013-1-8,4,-5,-13,0,-7,-18,0,0,0,30.16,29.96,29.67,10,8,2,3,0,5,0.01,7,Snow,30
2013-1-9,10,7,3,6,2,0,0,0,0,30.18,30.05,29.83,10,6,1,5,1,6,T,8,Snow,358
2013-1-10,16,13,10,13,10,7,0,0,0,30.03,29.90,29.78,10,5,0,7,1,12,0.18,8,Fog-Snow,137
2013-1-11,19,12,5,16,12,1,0,0,0,30.12,29.95,29.78,10,6,1,7,1,10,0.31,7,Snow,138
2013-1-12,31,22,12,28,20,9,0,0,0,30.01,29.74,29.51,10,4,0,8,4,16,0.86,8,Fog-Rain-Snow,132
2013-1-13,35,33,31,32,31,28,0,0,0,29.60,29.55,29.42,10,8,2,5,2,7,0.30,7,Rain-Snow,109
2013-1-14,39,13,-14,34,26,7,0,0,0,30.05,29.48,29.24,10,8,2,21,8,30,0.24,7,Rain-Snow,207
2013-1-15,20,13,6,12,9,4,0,0,0,30.21,30.17,30.07,10,10,9,10,3,14,T,6,Snow,172
2013-1-16,9,6,2,7,-1,-6,0,0,0,30.21,30.15,30.02,10,7,2,7,5,16,0.01,8,Snow,311
2013-1-17,2,-5,-12,-4,-6,-14,0,0,0,30.24,30.09,30.00,10,8,4,10,4,13,T,7,Snow,316
2013-1-18,-10,-20,-29,-18,-27,-35,0,0,0,30.38,30.34,30.27,10,10,10,6,1,7,0.00,0,,257
2013-1-19,11,-5,-20,2,-7,-24,0,0,0,30.30,30.10,29.88,10,7,2,14,3,18,0.03,8,Snow,3
2013-1-20,10,1,-9,3,-1,-14,0,0,0,30.04,29.94,29.82,10,8,0,12,3,17,0.09,5,Snow,96
2013-1-21,6,-4,-13,1,-8,-17,0,0,0,30.05,29.94,29.81,10,10,10,6,1,7,0.00,4,,277
2013-1-22,-1,-8,-14,-7,-12,-18,0,0,0,29.84,29.75,29.66,10,10,10,3,0,5,0.00,5,,-1
2013-1-23,7,2,-3,0,-3,-8,0,0,0,29.67,29.61,29.58,10,10,10,12,4,14,T,6,Snow,17
2013-1-24,4,-5,-13,-5,-14,-21,0,0,0,29.98,29.81,29.64,10,10,10,14,9,18,0.00,4,,27
2013-1-25,-13,-25,-37,-22,-29,-36,0,0,0,30.11,30.05,30.01,10,10,10,6,0,7,0.00,0,,90
2013-1-26,-25,-34,-43,-32,-34,-36,0,0,0,30.26,30.14,30.06,10,8,2,5,0,6,0.00,0,Fog,310
2013-1-27,-25,-37,-48,-34,-35,-35,0,0,0,30.58,30.43,30.24,10,6,1,5,0,6,0.00,1,Fog,215
2013-1-28,1,-24,-48,-15,-17,-21,0,0,0,30.54,30.24,29.84,10,8,1,14,3,20,0.00,2,Fog,49
2013-1-29,0,-3,-6,-7,-11,-17,0,0,0,29.84,29.77,29.74,10,6,1,14,6,20,0.13,8,Snow,102
2013-1-30,5,2,-2,2,-2,-8,0,0,0,29.80,29.70,29.64,10,3,1,7,1,10,0.31,8,Snow,115
2013-1-31,12,-2,-15,6,-1,-20,0,0,0,30.14,29.92,29.71,10,7,1,5,0,7,0.04,6,Snow,265